Surface/Precipitation History
03/28/2015 00:05  to  3/29/2015 00:05
Change End Date:
Date/Time
(MDT)
Sf
Temp Chem Water Layer Surface Precipitation
Sf Sub Frz Factor Pct Depth IcePct Cond Salin Type Intens Accum Rate
03/28/2015 23:54 Trace Moisture 38.7F - - 5 - - - 0 mhos 1 - - - -
03/28/2015 23:50 Trace Moisture 38.8F - - 5 - - - 0 mhos 1 - - - -
03/28/2015 23:40 Trace Moisture 39.2F - - 5 - - - 0 mhos 1 - - - -
03/28/2015 23:35 Trace Moisture 39.2F - - 5 - - - 0 mhos 1 None None - -
03/28/2015 23:30 Dry 39.7F - - - - - - 0 mhos 1 None None - -
03/28/2015 23:20 Dry 40.6F - - - - - - 0 mhos 1 None None - -
03/28/2015 23:20 Dry 40.6F - - - - - - 0 mhos 1 None None - -
03/28/2015 23:09 Dry 41.4F - - - - - - 0 mhos 1 None None - -
03/28/2015 23:05 Dry 41.5F - - - - - - 0 mhos 1 None None - -
03/28/2015 22:59 Wet 41.5F - 32F 5 0% 0.00 in 0% 0 mhos 1 None None - -
03/28/2015 22:50 Wet 41.5F - 32F 5 0% 0.00 in 0% 0 mhos 1 None None - -
03/28/2015 22:49 Wet 41.5F - 32F 5 0% 0.00 in 0% 0 mhos 1 None None - -
03/28/2015 22:39 Wet 41.2F - 32F 5 0% 0.00 in 0% 0 mhos 1 None None - -
03/28/2015 22:35 Wet 41.2F - 32F 5 0% 0.00 in 0% 0 mhos 1 None None - -
03/28/2015 22:29 Wet 41.0F - 32F 5 0% 0.00 in 0% 0 mhos 1 None None - -
Date/Time
(MDT)
Sf
Temp Chem Water Layer Surface Precipitation
Sf Sub Frz Factor Pct Depth IcePct Cond Salin Type Intens Accum Rate
03/28/2015 22:20 Wet 40.5F - 32F 5 0% 0.00 in 0% 0 mhos 1 None None - -
03/28/2015 22:19 Wet 40.3F - 32F 5 0% 0.00 in 0% 0 mhos 1 None None - -
03/28/2015 22:09 Wet 39.9F - 32F 5 0% 0.00 in 0% 0 mhos 1 None None - -
03/28/2015 22:05 Wet 40.1F - 32F 5 0% 0.00 in 0% 0 mhos 1 None None - -
03/28/2015 21:59 Wet 40.3F - 32F 5 0% 0.00 in 0% 0 mhos 1 None None - -
03/28/2015 21:50 Wet 40.5F - 32F 5 0% 0.00 in 0% 0 mhos 1 Yes - - -
03/28/2015 21:49 Wet 40.5F - 32F 5 0% 0.00 in 0% 0 mhos 1 Yes - - -
03/28/2015 21:39 Wet 40.6F - 32F 5 0% 0.00 in 0% 0 mhos 1 None None - -
03/28/2015 21:35 Wet 40.6F - 32F 5 0% 0.00 in 0% 0 mhos 1 None None - -
03/28/2015 21:29 Wet 40.8F - 32F 5 0% 0.00 in 0% 0 mhos 1 None None - -
03/28/2015 21:20 Wet 40.8F - 32F 5 0% 0.00 in 0% 0 mhos 1 None None - -
03/28/2015 21:19 Wet 40.8F - 32F 5 0% 0.00 in 0% 0 mhos 1 None None - -
03/28/2015 21:09 Wet 40.8F - 32F 5 0% 0.00 in 0% 0 mhos 1 None None - -
03/28/2015 21:05 Wet 41.0F - 32F 5 0% 0.00 in 0% 0 mhos 1 None None - -
03/28/2015 20:59 Wet 41.0F - 32F 5 0% 0.00 in 0% 0 mhos 1 None None - -
Date/Time
(MDT)
Sf
Temp Chem Water Layer Surface Precipitation
Sf Sub Frz Factor Pct Depth IcePct Cond Salin Type Intens Accum Rate
03/28/2015 20:50 Wet 40.8F - 32F 5 0% 0.00 in 0% 0 mhos 1 None None - -
03/28/2015 20:49 Wet 41.0F - 32F 5 0% 0.00 in 0% 0 mhos 1 None None - -
03/28/2015 20:39 Wet 41.5F - 32F 5 0% 0.00 in 0% 0 mhos 2 None None - -
03/28/2015 20:35 Wet 41.7F - 32F 5 0% 0.00 in 0% 0 mhos 2 None None - -
03/28/2015 20:29 Wet 41.9F - 32F 5 0% 0.00 in 0% 0 mhos 3 Yes - - -
03/28/2015 20:20 Wet 41.9F - 32F 5 0% 0.00 in 0% 0 mhos 3 None None - -
03/28/2015 20:19 Wet 41.9F - 32F 5 0% 0.00 in 0% 0 mhos 4 Yes - - -
03/28/2015 20:09 Wet 41.4F - 32F 5 0% 0.00 in 0% 0 mhos 4 None None - -
03/28/2015 20:05 Wet 41.4F - 32F 5 0% 0.00 in 0% 0 mhos 4 None None - -
03/28/2015 19:59 Wet 40.8F - 32F 5 0% 0.00 in 0% 0 mhos 5 None None - -
03/28/2015 19:50 Wet 40.5F - 32F 5 0% 0.00 in 0% 0 mhos 5 None None - -
03/28/2015 19:49 Wet 40.6F - 32F 5 0% 0.00 in 0% 0 mhos 5 None None - -
03/28/2015 19:38 Wet 41.4F - 32F 5 0% 0.00 in 0% 0 mhos 5 None None - -
03/28/2015 19:35 Wet 41.5F - 32F 5 0% 0.00 in 0% 0 mhos 5 None None - -
03/28/2015 19:28 Wet 41.7F - 32F 5 0% 0.00 in 0% 0 mhos 5 Yes - - -
Date/Time
(MDT)
Sf
Temp Chem Water Layer Surface Precipitation
Sf Sub Frz Factor Pct Depth IcePct Cond Salin Type Intens Accum Rate
03/28/2015 19:20 Wet 41.7F - 32F 5 0% 0.00 in 0% 0 mhos 5 Yes - - -
03/28/2015 19:18 Wet 41.7F - 32F 5 0% 0.00 in 0% 0 mhos 5 Yes - - -
03/28/2015 19:08 Wet 41.9F - 32F 5 0% 0.00 in 0% 0 mhos 4 Yes - - -
03/28/2015 19:05 Wet 41.9F - 32F 5 0% 0.00 in 0% 0 mhos 5 Yes - - -
03/28/2015 18:58 Wet 42.3F - 32F 5 0% 0.00 in 0% 0 mhos 5 Yes - - -
03/28/2015 18:50 Wet 42.8F - 32F 5 0% 0.00 in 0% 0 mhos 10 Yes - - -
03/28/2015 18:48 Wet 42.8F - 32F 5 0% 0.00 in 0% 0 mhos 11 Yes - - -
03/28/2015 18:38 Wet 43.0F - 32F 5 0% 0.00 in 0% 0 mhos 14 Yes - - -
03/28/2015 18:35 Wet 43.0F - 32F 5 0% 0.00 in 0% 0 mhos 15 Yes - - -
03/28/2015 18:28 Wet 43.2F - 32F 5 0% 0.00 in 0% 0 mhos 13 Yes - - -
03/28/2015 18:20 Wet 43.5F - 32F 5 0% 0.00 in 0% 0 mhos 12 Yes - - -
03/28/2015 18:18 Wet 43.5F - 32F 5 0% 0.00 in 0% 0 mhos 12 Yes - - -
03/28/2015 18:08 Wet 44.2F - 32F 5 0% 0.00 in 0% 0 mhos 8 Yes - - -
03/28/2015 18:05 Wet 44.4F - 32F 5 0% 0.00 in 0% 0 mhos 3 Yes - - -
03/28/2015 17:58 Wet 45.0F - 32F 5 0% 0.20 in 0% 0 mhos 1 Yes - - -
Date/Time
(MDT)
Sf
Temp Chem Water Layer Surface Precipitation
Sf Sub Frz Factor Pct Depth IcePct Cond Salin Type Intens Accum Rate
03/28/2015 17:50 Dry 47.1F - - - - - - 0 mhos 0 Yes - - -
03/28/2015 17:48 Dry 47.3F - - - - - - 0 mhos 0 None None - -
03/28/2015 17:38 Dry 47.1F - - - - - - 0 mhos 1 None None - -
03/28/2015 17:35 Wet 47.3F - 32F 5 0% 0.00 in 0% 0 mhos 0 Yes - - -
03/28/2015 17:28 Dry 49.3F - - - - - - 0 mhos 0 None None - -
03/28/2015 17:20 Dry 51.1F - - - - - - 0 mhos 0 None None - -
03/28/2015 17:18 Dry 51.8F - - - - - - 0 mhos 0 None None - -
03/28/2015 17:08 Dry 52.9F - - - - - - 0 mhos 0 None None - -
03/28/2015 17:05 Dry 53.4F - - - - - - 0 mhos 0 None None - -
03/28/2015 16:58 Dry 54.1F - - - - - - 0 mhos 0 None None - -
03/28/2015 16:50 Dry 55.6F - - - - - - 0 mhos 0 None None - -
03/28/2015 16:48 Dry 55.8F - - - - - - 0 mhos 0 None None - -
03/28/2015 16:38 Dry 56.3F - - - - - - 0 mhos 0 None None - -
03/28/2015 16:35 Dry 56.5F - - - - - - 0 mhos 0 None None - -
03/28/2015 16:27 Dry 57.2F - - - - - - 0 mhos 0 None None - -
Date/Time
(MDT)
Sf
Temp Chem Water Layer Surface Precipitation
Sf Sub Frz Factor Pct Depth IcePct Cond Salin Type Intens Accum Rate
03/28/2015 16:20 Dry 57.7F - - - - - - 0 mhos 0 None None - -
03/28/2015 16:17 Dry 57.9F - - - - - - 0 mhos 0 None None - -
03/28/2015 16:07 Dry 57.7F - - - - - - 0 mhos 0 None None - -
03/28/2015 16:05 Dry 57.7F - - - - - - 0 mhos 0 None None - -
03/28/2015 15:57 Dry 57.6F - - - - - - 0 mhos 0 None None - -
03/28/2015 15:50 Dry 57.7F - - - - - - 0 mhos 0 None None - -
03/28/2015 15:47 Dry 57.7F - - - - - - 0 mhos 0 None None - -
03/28/2015 15:37 Dry 57.7F - - - - - - 0 mhos 0 None None - -
03/28/2015 15:35 Dry 57.7F - - - - - - 0 mhos 0 None None - -
03/28/2015 15:27 Dry 57.7F - - - - - - 0 mhos 0 None None - -
03/28/2015 15:20 Dry 58.3F - - - - - - 0 mhos 0 None None - -
03/28/2015 15:17 Dry 58.5F - - - - - - 0 mhos 0 None None - -
03/28/2015 15:07 Dry 59.0F - - - - - - 0 mhos 0 None None - -
03/28/2015 15:05 Dry 58.8F - - - - - - 0 mhos 0 None None - -
03/28/2015 14:57 Dry 58.1F - - - - - - 0 mhos 0 None None - -
Date/Time
(MDT)
Sf
Temp Chem Water Layer Surface Precipitation
Sf Sub Frz Factor Pct Depth IcePct Cond Salin Type Intens Accum Rate
03/28/2015 14:50 Dry 57.2F - - - - - - 0 mhos 0 None None - -
03/28/2015 14:47 Dry 57.0F - - - - - - 0 mhos 0 None None - -
03/28/2015 14:37 Dry 57.0F - - - - - - 0 mhos 0 None None - -
03/28/2015 14:35 Dry 57.0F - - - - - - 0 mhos 0 None None - -
03/28/2015 14:27 Dry 56.5F - - - - - - 0 mhos 0 None None - -
03/28/2015 14:20 Dry 56.1F - - - - - - 0 mhos 0 None None - -
03/28/2015 14:17 Dry 55.9F - - - - - - 0 mhos 0 None None - -
03/28/2015 14:07 Dry 55.8F - - - - - - 0 mhos 0 None None - -
03/28/2015 14:05 Dry 55.9F - - - - - - 0 mhos 0 None None - -
03/28/2015 13:57 Dry 56.5F - - - - - - 0 mhos 0 None None - -
03/28/2015 13:50 Dry 56.5F - - - - - - 0 mhos 0 None None - -
03/28/2015 13:47 Dry 56.3F - - - - - - 0 mhos 0 None None - -
03/28/2015 13:37 Dry 56.3F - - - - - - 0 mhos 0 None None - -
03/28/2015 13:35 Dry 56.3F - - - - - - 0 mhos 0 None None - -
03/28/2015 13:27 Dry 56.3F - - - - - - 0 mhos 0 None None - -
Date/Time
(MDT)
Sf
Temp Chem Water Layer Surface Precipitation
Sf Sub Frz Factor Pct Depth IcePct Cond Salin Type Intens Accum Rate
03/28/2015 13:20 Dry 56.1F - - - - - - 0 mhos 0 None None - -
03/28/2015 13:17 Dry 55.9F - - - - - - 0 mhos 0 None None - -
03/28/2015 13:06 Dry 56.5F - - - - - - 0 mhos 0 None None - -
03/28/2015 13:05 Dry 56.5F - - - - - - 0 mhos 0 None None - -
03/28/2015 12:56 Dry 57.4F - - - - - - 0 mhos 0 None None - -
03/28/2015 12:50 Dry 58.1F - - - - - - 0 mhos 0 None None - -
03/28/2015 12:46 Dry 58.8F - - - - - - 0 mhos 0 None None - -
03/28/2015 12:36 Dry 61.9F - - - - - - 0 mhos 0 None None - -
03/28/2015 12:35 Dry 62.1F - - - - - - 0 mhos 0 None None - -
03/28/2015 12:26 Dry 62.1F - - - - - - 0 mhos 0 None None - -
03/28/2015 12:20 Dry 61.5F - - - - - - 0 mhos 0 None None - -
03/28/2015 12:16 Dry 61.9F - - - - - - 0 mhos 0 None None - -
03/28/2015 12:06 Dry 63.0F - - - - - - 0 mhos 0 None None - -
03/28/2015 12:05 Dry 63.1F - - - - - - 0 mhos 0 None None - -
03/28/2015 11:56 Dry 64.0F - - - - - - 0 mhos 0 None None - -
Date/Time
(MDT)
Sf
Temp Chem Water Layer Surface Precipitation
Sf Sub Frz Factor Pct Depth IcePct Cond Salin Type Intens Accum Rate
03/28/2015 11:50 Dry 66.2F - - - - - - 0 mhos 0 None None - -
03/28/2015 11:46 Dry 68.5F - - - - - - 0 mhos 0 None None - -
03/28/2015 11:36 Dry 69.1F - - - - - - 0 mhos 0 None None - -
03/28/2015 11:26 Dry 63.9F - - - - - - 0 mhos 0 None None - -
03/28/2015 11:21 Dry 64.4F - - - - - - 0 mhos 0 None None - -
03/28/2015 11:16 Dry 62.6F - - - - - - 0 mhos 0 None None - -
03/28/2015 11:06 Dry 59.7F - - - - - - 0 mhos 0 None None - -
03/28/2015 11:05 Dry 60.1F - - - - - - 0 mhos 0 None None - -
03/28/2015 10:56 Dry 61.3F - - - - - - 0 mhos 0 Yes - - -
03/28/2015 10:50 Dry 62.1F - - - - - - 0 mhos 0 None None - -
03/28/2015 10:46 Dry 60.8F - - - - - - 0 mhos 0 None None - -
03/28/2015 10:36 Dry 62.4F - - - - - - 0 mhos 0 None None - -
03/28/2015 10:35 Dry 63.0F - - - - - - 0 mhos 0 None None - -
03/28/2015 10:26 Dry 63.0F - - - - - - 0 mhos 0 None None - -
03/28/2015 10:20 Dry 58.5F - - - - - - 0 mhos 2 None None - -
Date/Time
(MDT)
Sf
Temp Chem Water Layer Surface Precipitation
Sf Sub Frz Factor Pct Depth IcePct Cond Salin Type Intens Accum Rate
03/28/2015 10:16 Wet 54.9F - 32F 5 0% 0.00 in 0% 0 mhos 2 None None - -
03/28/2015 10:06 Wet 52.2F - 32F 5 0% 0.00 in 0% 0 mhos 4 None None - -
03/28/2015 10:05 Wet 52.0F - 32F 5 0% 0.00 in 0% 0 mhos 5 None None - -
03/28/2015 09:56 Wet 51.1F - 32F 5 0% 0.00 in 0% 0 mhos 10 None None - -
03/28/2015 09:50 Wet 50.0F - 32F 5 0% 0.00 in 0% 0 mhos 12 Yes - - -
03/28/2015 09:45 Wet 49.1F - 32F 10 0% 0.00 in 0% 0 mhos 12 Yes - - -
03/28/2015 09:35 Dry 50.0F - - - - - - 0 mhos 1 Yes - - -
03/28/2015 09:35 Dry 50.2F - - - - - - 0 mhos 1 Yes - - -
03/28/2015 09:25 Dry 50.4F - - - - - - 0 mhos 1 Yes - - -
03/28/2015 09:20 Dry 50.9F - - - - - - 0 mhos 1 None None - -
03/28/2015 09:15 Dry 51.3F - - - - - - 0 mhos 1 None None - -
03/28/2015 09:05 Dry 50.9F - - - - - - 0 mhos 1 None None - -
03/28/2015 08:55 Dry 51.1F - - - - - - 0 mhos 1 None None - -
03/28/2015 08:50 Dry 50.5F - - - - - - 0 mhos 1 None None - -
03/28/2015 08:45 Dry 49.6F - - - - - - 0 mhos 1 None None - -
Date/Time
(MDT)
Sf
Temp Chem Water Layer Surface Precipitation
Sf Sub Frz Factor Pct Depth IcePct Cond Salin Type Intens Accum Rate
03/28/2015 08:35 Dry 48.2F - - - - - - 0 mhos 1 None None - -
03/28/2015 08:35 Dry 48.2F - - - - - - 0 mhos 1 None None - -
03/28/2015 08:25 Dry 47.1F - - - - - - 0 mhos 1 None None - -
03/28/2015 08:20 Dry 46.6F - - - - - - 0 mhos 1 None None - -
03/28/2015 08:15 Dry 46.4F - - - - - - 0 mhos 1 None None - -
03/28/2015 08:05 Dry 46.0F - - - - - - 0 mhos 1 None None - -
03/28/2015 08:05 Dry 45.9F - - - - - - 0 mhos 1 None None - -
03/28/2015 07:55 Dry 45.9F - - - - - - 0 mhos 1 None None - -
03/28/2015 07:50 Dry 45.7F - - - - - - 0 mhos 1 None None - -
03/28/2015 07:45 Dry 45.7F - - - - - - 0 mhos 1 None None - -
03/28/2015 07:35 Dry 45.7F - - - - - - 0 mhos 1 None None - -
03/28/2015 07:35 Dry 45.7F - - - - - - 0 mhos 1 None None - -
03/28/2015 07:25 Dry 45.1F - - - - - - 0 mhos 1 None None - -
03/28/2015 07:20 Dry 45.1F - - - - - - 0 mhos 1 None None - -
03/28/2015 07:15 Dry 44.8F - - - - - - 0 mhos 1 None None - -
Date/Time
(MDT)
Sf
Temp Chem Water Layer Surface Precipitation
Sf Sub Frz Factor Pct Depth IcePct Cond Salin Type Intens Accum Rate
03/28/2015 07:05 Dry 44.6F - - - - - - 0 mhos 1 None None - -
03/28/2015 07:05 Dry 44.6F - - - - - - 0 mhos 1 None None - -
03/28/2015 06:55 Dry 44.4F - - - - - - 0 mhos 1 None None - -
03/28/2015 06:50 Dry 44.4F - - - - - - 0 mhos 0 None None - -
03/28/2015 06:45 Dry 44.4F - - - - - - 0 mhos 0 None None - -
03/28/2015 06:35 Dry 44.1F - - - - - - 0 mhos 0 None None - -
03/28/2015 06:34 Dry 44.1F - - - - - - 0 mhos 0 None None - -
03/28/2015 06:24 Dry 44.4F - - - - - - 0 mhos 0 None None - -
03/28/2015 06:20 Dry 44.4F - - - - - - 0 mhos 0 None None - -
03/28/2015 06:14 Dry 44.6F - - - - - - 0 mhos 0 None None - -
03/28/2015 06:05 Dry 44.4F - - - - - - 0 mhos 0 None None - -
03/28/2015 06:04 Dry 44.4F - - - - - - 0 mhos 0 None None - -
03/28/2015 05:54 Dry 44.4F - - - - - - 0 mhos 0 None None - -
03/28/2015 05:50 Dry 44.8F - - - - - - 0 mhos 0 None None - -
03/28/2015 05:44 Dry 45.1F - - - - - - 0 mhos 0 None None - -
Date/Time
(MDT)
Sf
Temp Chem Water Layer Surface Precipitation
Sf Sub Frz Factor Pct Depth IcePct Cond Salin Type Intens Accum Rate
03/28/2015 05:35 Dry 45.3F - - - - - - 0 mhos 0 None None - -
03/28/2015 05:34 Dry 45.3F - - - - - - 0 mhos 0 None None - -
03/28/2015 05:24 Dry 45.3F - - - - - - 0 mhos 0 None None - -
03/28/2015 05:20 Dry 45.3F - - - - - - 0 mhos 0 None None - -
03/28/2015 05:14 Dry 45.5F - - - - - - 0 mhos 0 None None - -
03/28/2015 05:05 Dry 45.3F - - - - - - 0 mhos 0 None None - -
03/28/2015 05:04 Dry 45.3F - - - - - - 0 mhos 0 None None - -
03/28/2015 04:54 Dry 45.1F - - - - - - 0 mhos 0 None None - -
03/28/2015 04:50 Dry 45.1F - - - - - - 0 mhos 0 None None - -
03/28/2015 04:44 Dry 45.1F - - - - - - 0 mhos 0 None None - -
03/28/2015 04:35 Dry 45.0F - - - - - - 0 mhos 0 None None - -
03/28/2015 04:34 Dry 45.0F - - - - - - 0 mhos 0 None None - -
03/28/2015 04:24 Dry 45.1F - - - - - - 0 mhos 0 None None - -
03/28/2015 04:20 Dry 45.3F - - - - - - 0 mhos 0 None None - -
03/28/2015 04:14 Dry 45.5F - - - - - - 0 mhos 0 None None - -
Date/Time
(MDT)
Sf
Temp Chem Water Layer Surface Precipitation
Sf Sub Frz Factor Pct Depth IcePct Cond Salin Type Intens Accum Rate
03/28/2015 04:05 Dry 45.7F - - - - - - 0 mhos 0 None None - -
03/28/2015 04:04 Dry 45.7F - - - - - - 0 mhos 0 None None - -
03/28/2015 03:54 Dry 46.4F - - - - - - 0 mhos 0 None None - -
03/28/2015 03:50 Dry 46.6F - - - - - - 0 mhos 0 None None - -
03/28/2015 03:44 Dry 46.9F - - - - - - 0 mhos 0 None None - -
03/28/2015 03:35 Dry 47.1F - - - - - - 0 mhos 0 None None - -
03/28/2015 03:34 Dry 47.1F - - - - - - 0 mhos 0 None None - -
03/28/2015 03:23 Dry 47.1F - - - - - - 0 mhos 0 None None - -
03/28/2015 03:20 Dry 47.1F - - - - - - 0 mhos 0 None None - -
03/28/2015 03:13 Dry 47.1F - - - - - - 0 mhos 0 None None - -
03/28/2015 03:05 Dry 47.7F - - - - - - 0 mhos 0 None None - -
03/28/2015 03:03 Dry 47.7F - - - - - - 0 mhos 0 None None - -
03/28/2015 02:53 Dry 48.0F - - - - - - 0 mhos 0 None None - -
03/28/2015 02:50 Dry 48.2F - - - - - - 0 mhos 0 None None - -
03/28/2015 02:43 Dry 48.4F - - - - - - 0 mhos 0 None None - -
Date/Time
(MDT)
Sf
Temp Chem Water Layer Surface Precipitation
Sf Sub Frz Factor Pct Depth IcePct Cond Salin Type Intens Accum Rate
03/28/2015 02:35 Dry 48.6F - - - - - - 0 mhos 0 None None - -
03/28/2015 02:33 Dry 48.6F - - - - - - 0 mhos 0 None None - -
03/28/2015 02:23 Dry 48.7F - - - - - - 0 mhos 0 None None - -
03/28/2015 02:20 Dry 48.9F - - - - - - 0 mhos 0 None None - -
03/28/2015 02:13 Dry 49.1F - - - - - - 0 mhos 0 None None - -
03/28/2015 02:05 Dry 49.3F - - - - - - 0 mhos 0 None None - -
03/28/2015 02:03 Dry 49.3F - - - - - - 0 mhos 0 None None - -
03/28/2015 01:53 Dry 49.6F - - - - - - 0 mhos 0 None None - -
03/28/2015 01:50 Dry 49.6F - - - - - - 0 mhos 0 None None - -
03/28/2015 01:43 Dry 49.6F - - - - - - 0 mhos 0 None None - -
03/28/2015 01:35 Dry 50.0F - - - - - - 0 mhos 0 None None - -
03/28/2015 01:33 Dry 50.0F - - - - - - 0 mhos 0 None None - -
03/28/2015 01:23 Dry 50.2F - - - - - - 0 mhos 0 None None - -
03/28/2015 01:20 Dry 50.4F - - - - - - 0 mhos 0 None None - -
03/28/2015 01:13 Dry 50.5F - - - - - - 0 mhos 0 None None - -
Date/Time
(MDT)
Sf
Temp Chem Water Layer Surface Precipitation
Sf Sub Frz Factor Pct Depth IcePct Cond Salin Type Intens Accum Rate
03/28/2015 01:05 Dry 50.5F - - - - - - 0 mhos 0 None None - -
03/28/2015 01:03 Dry 50.7F - - - - - - 0 mhos 0 None None - -
03/28/2015 00:53 Dry 50.7F - - - - - - 0 mhos 0 None None - -
03/28/2015 00:50 Dry 50.7F - - - - - - 0 mhos 0 None None - -
03/28/2015 00:43 Dry 50.9F - - - - - - 0 mhos 0 None None - -
03/28/2015 00:35 Dry 50.9F - - - - - - 0 mhos 0 None None - -
03/28/2015 00:33 Dry 51.1F - - - - - - 0 mhos 0 None None - -
03/28/2015 00:23 Dry 51.3F - - - - - - 0 mhos 0 None None - -
03/28/2015 00:20 Dry 51.4F - - - - - - 0 mhos 0 None None - -
03/28/2015 00:13 Dry 51.6F - - - - - - 0 mhos 0 None None - -
Change End Date:
Copyright © 1998-2005 Surface Systems, Inc.
All Rights Reserved
Send comments about the data to:
SCAN Web ® is a registered trademark of Surface Systems, Inc.
SCAN Web Version 5.6